Location: Apeadero de Los Molinos-Guadarrama
(40.7091°N, 4.0689°W)
Time: 13:05:41
(UTC+00:00)

Resurs 01 Rocket - Pass Details

Date: 14 May 2021
Orbit: 633 x 645 km, 97.9° (Epoch: 18 June)

Event Time Altitude Azimuth Distance (km) Brightness Sun altitude
Exits shadow 21:12:21 19° 185° (S) 1,520 3.2 -17.2°
Maximum altitude 21:15:24 57° 259° (W) 756 2.1 -17.6°
Drops below altitude 10° 21:19:47 10° 339° (NNW) 2,043 5.3 -18.2°
Sets 21:22:02 0° 344° (NNW) 2,955 6.2 -18.5°
